GW6108 Weather Reports


time (UTC)temp
C
wind
direction
speed
KPH
gust
KPH
rain 1hr
cm
rain 24hr
cm
rain mn
cm
humidity
%
barometer
mb
20260508071503 8 0 0.0 0.0 0.00 0.08 0.00 99 1015.9
20260508070004 8 0 0.0 0.0 0.00 0.08 0.00 99 1015.8
20260508064503 8 0 0.0 0.0 0.00 0.08 0.00 99 1015.8
20260508063003 8 0 0.0 0.0 0.00 0.08 0.00 99 1015.6
20260508061503 7 0 0.0 0.0 0.00 0.08 0.00 99 1015.5
20260508060003 7 0 0.0 0.0 0.00 0.08 0.00 99 1015.4
20260508054503 7 203 0.0 1.6 0.00 0.08 0.00 99 1015.2
20260508053218 7 0 0.0 0.0 0.00 0.08 0.00 99 1015.2
20260508051717 7 199 0.0 3.2 0.00 0.08 0.00 97 1015.1
20260508050003 7 0 0.0 0.0 0.00 0.08 0.00 97 1015.2
20260508044503 6 0 0.0 0.0 0.00 0.08 0.00 97 1015.0
20260508043003 7 0 0.0 0.0 0.00 0.08 0.00 97 1015.0
20260508041503 7 0 0.0 0.0 0.00 0.08 0.00 97 1015.0
20260508040003 7 0 0.0 0.0 0.00 0.08 0.00 97 1015.0
20260508034503 7 0 0.0 0.0 0.00 0.08 0.00 97 1015.0
20260508033003 7 0 0.0 0.0 0.00 0.08 0.00 97 1014.9
20260508031503 7 0 0.0 0.0 0.00 0.08 0.00 95 1015.0
20260508030219 7 0 0.0 0.0 0.00 0.08 0.00 97 1014.9
20260508024503 7 0 0.0 0.0 0.00 0.08 0.00 95 1015.1
20260508023217 7 0 0.0 0.0 0.00 0.08 0.00 95 1015.0
20260508021503 7 0 0.0 0.0 0.00 0.08 0.00 95 1014.9
20260508020003 7 0 0.0 0.0 0.00 0.08 0.00 95 1014.9
20260508014503 7 0 0.0 0.0 0.00 0.08 0.00 95 1014.9
20260508013003 7 0 0.0 0.0 0.00 0.08 0.00 95 1014.9
20260508011503 7 0 0.0 0.0 0.00 0.08 0.00 95 1014.9
20260508010003 7 0 0.0 0.0 0.00 0.08 0.00 95 1015.0
20260508004503 7 0 0.0 0.0 0.00 0.08 0.00 95 1015.1
20260508003216 7 0 0.0 0.0 0.00 0.08 0.00 94 1015.1
20260508001503 7 0 0.0 0.0 0.00 0.08 0.00 94 1015.1
20260508000003 7 0 0.0 0.0 0.00 0.08 0.00 94 1015.1
20260507234503 7 0 0.0 0.0 0.00 0.08 0.08 94 1015.1
20260507233003 7 175 1.6 4.8 0.00 0.08 0.08 92 1015.1
20260507231503 7 0 0.0 0.0 0.00 0.08 0.08 92 1015.1
20260507230003 8 0 0.0 0.0 0.00 0.08 0.08 92 1015.1
20260507224504 8 0 0.0 0.0 0.00 0.08 0.08 91 1015.1
20260507223003 8 0 0.0 0.0 0.00 0.08 0.08 91 1015.0
20260507221503 8 0 0.0 0.0 0.00 0.08 0.08 91 1015.1
20260507220003 8 0 0.0 0.0 0.00 0.08 0.08 89 1015.0
20260507214716 8 0 0.0 0.0 0.00 0.08 0.08 89 1015.1
20260507213003 9 259 1.6 4.8 0.00 0.08 0.08 88 1015.1
20260507211503 9 189 6.4 9.7 0.00 0.08 0.08 86 1015.0
20260507210003 9 189 3.2 8.0 0.00 0.08 0.08 86 1014.8
20260507204503 9 177 6.4 9.7 0.00 0.08 0.08 86 1014.7
20260507203003 9 171 6.4 11.3 0.00 0.08 0.08 86 1014.6
20260507201717 9 176 9.7 12.9 0.00 0.08 0.08 86 1014.6
20260507200003 9 169 11.3 16.1 0.00 0.08 0.08 88 1014.3
20260507194503 9 172 14.5 20.9 0.00 0.08 0.08 89 1014.3
20260507193003 9 166 11.3 17.7 0.00 0.08 0.08 89 1014.2
20260507191503 9 176 12.9 19.3 0.00 0.08 0.08 91 1014.2
20260507190004 9 166 6.4 9.7 0.00 0.08 0.08 91 1014.1
20260507184503 10 172 8.0 12.9 0.00 0.08 0.08 91 1014.1
20260507183003 10 181 4.8 8.0 0.00 0.08 0.08 91 1014.0
20260507181717 10 233 0.0 3.2 0.00 0.08 0.08 91 1014.0
20260507180003 10 303 1.6 4.8 0.00 0.08 0.08 92 1013.8
20260507174503 10 179 3.2 8.0 0.00 0.08 0.08 91 1013.9
20260507173003 10 165 3.2 6.4 0.00 0.08 0.08 91 1014.0
20260507171503 10 166 3.2 8.0 0.00 0.08 0.08 91 1014.0
20260507170003 11 161 0.0 4.8 0.05 0.08 0.08 92 1014.1
20260507164718 10 182 4.8 8.0 0.08 0.08 0.08 92 1014.1
20260507163003 10 172 6.4 9.7 0.08 0.08 0.08 89 1014.2
20260507161503 10 200 9.7 14.5 0.08 0.08 0.08 86 1014.3
20260507160003 10 228 11.3 24.1 0.03 0.03 0.03 84 1014.4
20260507154503 11 259 16.1 22.5 0.00 0.00 0.00 75 1014.3
20260507153003 13 264 4.8 12.9 0.00 0.00 0.00 63 1014.0
20260507151503 13 284 3.2 8.0 0.00 0.00 0.00 62 1013.9
20260507150218 13 181 9.7 20.9 0.00 0.00 0.00 59 1013.9
20260507144503 13 128 6.4 14.5 0.00 0.00 0.00 63 1013.9
20260507143003 13 123 8.0 27.4 0.00 0.00 0.00 61 1014.0
20260507141503 13 192 11.3 29.0 0.00 0.00 0.00 61 1014.2
20260507140003 14 195 9.7 30.6 0.00 0.00 0.00 59 1014.3
20260507134503 14 134 6.4 19.3 0.00 0.00 0.00 62 1014.2
20260507133003 15 179 9.7 22.5 0.00 0.00 0.00 61 1014.3
20260507131503 15 119 6.4 19.3 0.00 0.00 0.00 66 1014.3
20260507130003 14 154 6.4 19.3 0.00 0.00 0.00 63 1014.5
20260507124503 14 199 8.0 29.0 0.00 0.00 0.00 63 1014.5
20260507123003 13 189 9.7 19.3 0.00 0.00 0.00 61 1014.7
20260507121503 15 127 8.0 20.9 0.00 0.00 0.00 64 1014.6
20260507120003 15 143 4.8 17.7 0.00 0.00 0.00 58 1014.6
20260507114503 15 127 9.7 20.9 0.00 0.00 0.00 59 1014.7
20260507113219 14 137 8.0 20.9 0.00 0.00 0.00 67 1014.9
20260507111503 13 140 4.8 14.5 0.00 0.00 0.00 66 1015.0
20260507110003 12 192 9.7 17.7 0.00 0.00 0.00 75 1015.2
20260507104503 11 179 4.8 14.5 0.00 0.00 0.00 75 1015.3
20260507103003 11 2 3.2 12.9 0.00 0.00 0.00 76 1015.3
20260507101503 10 103 4.8 12.9 0.00 0.00 0.00 78 1015.4
20260507100003 10 97 1.6 12.9 0.00 0.00 0.00 79 1015.4
20260507094503 10 212 0.0 14.5 0.00 0.00 0.00 79 1015.4
20260507093003 9 201 6.4 14.5 0.00 0.00 0.00 81 1015.4
20260507091503 9 281 3.2 6.4 0.00 0.00 0.00 84 1015.4
20260507090004 8 92 0.0 4.8 0.00 0.00 0.00 85 1015.5
20260507084719 7 59 1.6 4.8 0.00 0.00 0.00 88 1015.5
20260507083003 7 329 1.6 3.2 0.00 0.00 0.00 89 1015.5
20260507081717 7 262 1.6 4.8 0.00 0.00 0.00 91 1015.5
20260507080003 6 0 0.0 1.6 0.00 0.00 0.00 91 1015.5
20260507074503 6 45 1.6 3.2 0.00 0.00 0.00 92 1015.5
20260507073003 6 37 1.6 3.2 0.00 0.00 0.00 92 1015.5
20260507071716 6 58 3.2 4.8 0.00 0.00 0.00 92 1015.4